Regional Weather Roundup
Issued by NWS

Home | Current Version | Previous Version | Text Only | Print | Product List | Glossary Off
Versions: 1 2 3 4 5 6 7 8 9 10 11 12 13 14 15 16 17 18 19 20 21 22 23 24 25 26 27 28 29 30 31 32 33 34 35 36 37 38 39 40 41 42 43 44 45 46 47 48 49 50

849
ASUS43 KBIS 270502
RWRND

NORTH DAKOTA REGIONAL WEATHER ROUNDUP
NATIONAL WEATHER SERVICE BISMARCK ND
1200 AM CDT WED JUL 27 2016

NOTE: "FAIR" INDICATES FEW OR NO CLOUDS BELOW 12,000 FEET WITH NO
SIGNIFICANT WEATHER AND/OR OBSTRUCTIONS TO VISIBILITY.


NDZ001>003-009>011-017-270600-
NORTHWEST NORTH DAKOTA

CITY           SKY/WX    TMP DP  RH WIND       PRES   REMARKS
WILLISTON      CLEAR     68  57  68 E7        30.09S
MINOT          CLOUDY    67  60  78 N5        30.05F
MINOT AFB      CLOUDY    68  60  76 N7        30.05F
$$

NDZ018>021-031>035-040>046-270600-
SOUTHWEST NORTH DAKOTA

CITY           SKY/WX    TMP DP  RH WIND       PRES   REMARKS
BISMARCK       CLEAR     68  62  81 NE8       30.03F
DICKINSON      CLEAR     59  56  89 NE3       30.07S
GARRISON         N/A     65  60  84 N5        30.06S
HETTINGER ARPT CLEAR     65  59  81 NE8       30.09R
$$

NDZ004>008-012>016-024-026-027-054-270600-
NORTHEAST NORTH DAKOTA

CITY           SKY/WX    TMP DP  RH WIND       PRES   REMARKS
GRAND FORKS    RAIN      67  61  81 NE12      30.01R
GRND FRKS AFB  CLOUDY    66  62  86 E5        30.04R
DEVILS LAKE    CLOUDY    68  64  87 N7        30.07R
$$

NDZ022-023-025-028>030-036>039-047>053-270600-
SOUTHEAST NORTH DAKOTA

CITY           SKY/WX    TMP DP  RH WIND       PRES   REMARKS
FARGO          CLOUDY    69  65  86 VRB3      30.00R
JAMESTOWN      LGT RAIN  64  63  96 NE6       30.00F
$$





USA.gov is the U.S. government's official web portal to all federal, state and local government web resources and services.